Regional Weather Roundup
Issued by NWS

Home | Current Version | Previous Version | Text Only | Print | Product List | Glossary Off
Versions: 1 2 3 4 5 6 7 8 9 10 11 12 13 14 15 16 17 18 19 20 21 22 23 24 25 26 27 28 29 30 31 32 33 34 35 36 37 38 39 40 41 42 43 44 45 46 47 48 49 50

000
ASUS43 KLOT 181710
RWRIL

ILLINOIS REGIONAL WEATHER ROUNDUP
NATIONAL WEATHER SERVICE CHICAGO/ROMEOVILLE IL
1200 PM CDT FRI APR 18 2014

NOTE: "FAIR" INDICATES FEW OR NO CLOUDS BELOW 12,000 FEET WITH NO
SIGNIFICANT WEATHER AND/OR OBSTRUCTIONS TO VISIBILITY.

* THESE STATIONS ARE NOT UNDER NWS QUALITY CONTROL. THEY ALSO MAY NOT
  REPORT WEATHER SUCH AS PRECIPITATION OR FOG.

ILZ001-002-007-009-015-016-024-181800-
NORTHWEST ILLINOIS

CITY           SKY/WX    TMP DP  RH WIND       PRES   REMARKS
MOLINE         SUNNY     52  31  44 CALM      30.36S
STERLING*      SUNNY     55  36  47 N8        30.35S
SAVANNA*       SUNNY     50  34  53 W7        30.36S
$$

ILZ003-004-008-010-011-017-018-181800-
NORTH CENTRAL ILLINOIS

CITY           SKY/WX    TMP DP  RH WIND       PRES   REMARKS
ROCKFORD       MOSUNNY   52  33  48 VRB6      30.38R
FREEPORT*      SUNNY     51  36  55 N5        30.37S
ROCHELLE*      SUNNY     54  35  47 NE5       30.35S
DE KALB*       SUNNY     50  34  52 NE6       30.35S
PERU*          SUNNY     55  37  51 CALM      30.34F
$$

ILZ005-006-012>014-019>023-181800-
NORTHEAST ILLINOIS

CITY           SKY/WX    TMP DP  RH WIND       PRES   REMARKS
CHICAGO-OHARE    N/A     50  34  54 NE9       30.36R
CHICAGO-MIDWAY MOSUNNY   50  35  56 NE14      30.36R
AURORA         SUNNY     55  37  50 N8        30.34S
LANSING*       SUNNY     46  35  65 N6        30.37R
WAUKEGAN       SUNNY     44  32  62 N9        30.36R
DUPAGE AIRPORT SUNNY     55  37  50 NE7       30.34S
KANKAKEE*      SUNNY     58  40  50 NE6       30.33F
WHEELING       SUNNY     46  33  60 NE12      30.37S
MORRIS*        SUNNY     57  33  39 CALM      30.33S
ROMEOVILLE*    SUNNY     55  36  48 E5        30.33F
NORTHERLY ISL    N/A     43  34  70 MISG        N/A
$$

LMZ740>746-181800-
SOUTHERN LAKE MICHIGAN

STATION/POSITION SKY/WX   TEMP    WIND        PRES    VSBY  WAVE
                          AIR SEA DIR/SP/G                  HT/PER
                          (F)     (DEG/KT/KT) (MB)    (MI)  (FT/S)
WAUKEGAN HARBOR            38      30/ 19/ 22 1029.5R
HARRISON CRIB              37     350/ 15/ 17   N/A
BURNHAM HARBOR             43     360/ 13/ 16   N/A
CALUMET HARBOR             40     350/ 14/ 17 1029.0F
MICHIGAN CITY              39     320/ 10/ 12   N/A
$$

ILZ025>027-034>036-040-047-049-050-058-095>099-181800-
WEST-CENTRAL ILLINOIS

CITY           SKY/WX    TMP DP  RH WIND       PRES   REMARKS
QUINCY         SUNNY     58  37  45 VRB6      30.34F
GALESBURG*     SUNNY     55  35  46 CALM      30.35S
MACOMB*        SUNNY     54  33  44 CALM      30.37F
JACKSONVILLE*  SUNNY     60  39  44 NW8       30.35S
PITTSFIELD*    SUNNY     60  40  49 N6        30.35S
$$

ILZ028>032-037-038-041>044-048-051>054-059>061-181800-
CENTRAL ILLINOIS

CITY           SKY/WX    TMP DP  RH WIND       PRES   REMARKS
PONTIAC        SUNNY     57  36  44 NW5       30.33F
BLOOMINGTON    SUNNY     57  35  43 NW10      30.34F
DECATUR        SUNNY     62  40  44 NW8       30.32F
PEORIA         SUNNY     60  34  37 N6        30.35R
LACON*         SUNNY     55  35  46 N5        30.34S
LINCOLN*       SUNNY     62  37  40 CALM      30.33S
SPRINGFIELD    SUNNY     63  39  41 NE8       30.34S
TAYLORVILLE    SUNNY     59  41  51 N7        30.33S
$$

ILZ033-039-045-046-055>057-062-063-181800-
EAST-CENTRAL ILLINOIS

CITY           SKY/WX    TMP DP  RH WIND       PRES   REMARKS
CHAMPAIGN      SUNNY     64  40  41 W10       30.31F
RANTOUL*       SUNNY     63  39  41 CALM      30.33S
MATTOON        SUNNY     64  42  44 VRB3      30.30F
PARIS*         SUNNY     65  42  43 W6        30.31F
$$

ILZ079-100>102-181800-
SOUTHWEST ILLINOIS

CITY           SKY/WX    TMP DP  RH WIND       PRES   REMARKS
ALTON          SUNNY     61  37  41 NE8       30.33S
BELLEVILLE     SUNNY     64  45  49 VRB6      30.31S
CAHOKIA*       SUNNY     64  43  46 N8        30.31F
SPARTA*        SUNNY     61  43  51 NW3       30.32S
$$

ILZ064>066-069>071-074>076-080>082-084>086-088>090-092>094-181800-
SOUTH-CENTRAL ILLINOIS

CITY           SKY/WX    TMP DP  RH WIND       PRES   REMARKS
CARBONDALE     SUNNY     67  46  47 CALM      30.29F
CAIRO*         SUNNY     72  40  32 NE3       30.28F
MARION         SUNNY     68  41  37 S6        30.30F
MT. VERNON     SUNNY     66  41  39 N5        30.30F
CENTRALIA*       N/A     64  41  43 CALM      30.30F
SALEM*         SUNNY     65  45  49 CALM      30.31F
METROPOLIS*    PTSUNNY   68  34  28 N5        30.28F
$$

ILZ067-068-072-073-078-083-087-091-181800-
SOUTHEAST ILLINOIS

CITY           SKY/WX    TMP DP  RH WIND       PRES   REMARKS
FAIRFIELD*     SUNNY     68  46  45 CALM      30.29S
HARRISBURG*    SUNNY     68  42  39 CALM      30.30F
ROBINSON*      SUNNY     69  43  40 CALM      30.29F
CARMI*         SUNNY     69  46  44 CALM      30.29F HAZE
$$

ABBREVIATIONS USED IN REMARKS
   TC - TEMPERATURE IN CELSIUS
  WCI - WIND CHILL INDEX
   HX - HEAT INDEX
  VSB - VISIBILITY
$$




USA.gov is the U.S. government's official web portal to all federal, state and local government web resources and services.